Temperature
13 14 14 15 12 9 11 12 12 13 14 16 17 17 16 16 16 17 17 17 17 16 16 15 15 15 15 16 16 16 15 16 15 15 15 15 15 15 15 15 15 15 15 15 15 15 15 15 15
13 14 14 14 10 11 11 11 12 13 16 16 17 17 16 16 17 17 17 16 16 16 16 15 15 15 15 15 15 15 15 15 15 15 15 15 15 15 15 15 15 15 15 15 15 15 15 15 15
13 14 14 9 9 11 13 13 12 14 16 16 16 16 16 16 17 17 17 16 16 16 15 15 15 15 15 15 15 15 15 15 15 15 15 15 15 15 14 14 14 14 15 14 14 14 14 14 14
13 13 13 9 10 10 12 13 13 14 15 16 16 15 16 16 16 17 17 16 15 15 15 15 15 15 15 15 15 15 15 15 15 15 15 15 15 14 14 14 14 14 14 14 14 14 14 14 14
13 13 10 9 10 10 10 12 13 13 14 15 15 14 15 16 16 16 16 16 15 15 15 15 15 15 15 15 15 15 15 15 15 15 15 14 14 14 14 14 14 14 14 14 14 14 14 14 14
13 10 9 9 10 11 11 13 14 13 14 15 15 14 15 16 16 16 16 15 15 15 15 14 14 14 15 15 15 15 15 15 14 14 14 14 14 14 14 14 14 14 14 14 14 14 14 14 14
11 8 9 9 10 11 12 14 13 13 13 14 15 14 15 15 15 15 15 15 14 14 14 14 14 14 14 14 14 15 14 14 14 14 14 14 14 14 14 14 14 14 14 14 14 14 14 14 13
12 8 9 9 10 11 13 14 15 14 14 16 15 14 14 15 15 15 14 14 14 14 14 14 14 14 14 14 14 14 14 14 14 14 14 14 14 14 14 14 14 13 13 13 13 13 13 13 13
11 8 8 9 10 11 13 13 14 15 15 15 15 15 16 15 15 14 14 14 14 13 14 14 14 14 14 14 14 14 14 14 14 14 14 14 13 13 14 14 13 13 13 13 13 13 13 13 13
10 8 9 10 10 12 13 13 14 14 13 13 14 15 15 15 14 14 14 14 14 13 13 13 13 13 13 13 13 13 13 13 13 13 13 13 13 13 13 13 13 13 13 13 13 13 12 13 12
8 8 9 10 12 12 12 13 13 13 12 13 14 15 14 14 14 14 14 14 14 14 13 13 13 13 13 13 13 13 13 13 13 13 13 13 13 13 13 13 13 13 13 13 13 13 12 12 12
8 8 10 11 12 12 12 12 12 12 14 15 15 15 14 14 14 14 14 14 14 13 13 13 13 13 13 13 13 13 13 13 13 13 13 13 13 13 13 13 13 13 13 13 12 12 12 12 12
8 9 10 11 11 11 11 11 11 12 14 14 14 14 14 14 14 14 14 14 13 13 13 13 13 13 13 13 13 13 13 13 12 12 12 13 13 13 13 13 13 12 12 12 12 12 12 12 11
8 9 10 10 11 11 10 10 10 11 13 13 13 13 13 13 13 13 13 13 13 13 13 13 13 13 12 12 12 12 12 12 12 12 12 12 12 12 12 12 12 12 12 12 12 11 11 11 11
9 8 8 9 10 10 10 9 9 11 12 12 12 12 12 13 13 13 13 13 13 13 13 12 12 12 12 12 12 12 12 12 12 12 12 12 12 12 12 12 12 12 12 11 11 11 11 11 11
8 8 7 8 9 9 10 9 9 11 11 10 11 11 12 12 12 12 13 13 13 13 13 12 12 12 12 12 12 12 12 12 12 12 12 11 11 11 12 12 12 12 11 11 11 11 11 10 10
7 6 7 8 8 8 8 8 9 10 10 9 10 10 11 11 11 12 12 12 12 12 12 12 12 12 12 12 12 11 11 11 11 11 11 11 11 11 11 11 11 11 11 11 11 10 10 10 10
6 6 6 7 8 8 7 7 8 8 8 8 9 9 10 10 11 11 11 12 12 12 12 12 12 12 11 11 11 11 11 11 11 11 11 11 11 11 11 11 11 11 11 10 10 10 10 10 10
5 5 6 6 7 7 6 7 7 7 7 7 7 8 9 10 10 11 11 11 11 11 11 11 11 11 11 11 11 11 11 11 11 11 11 11 11 11 11 11 11 11 10 10 10 10 10 9 9
5 5 5 6 6 7 6 6 6 6 6 7 7 7 8 9 10 10 10 11 11 11 11 11 11 11 11 11 11 11 11 11 11 11 10 11 10 10 10 10 10 10 10 10 10 10 9 9 9
5 4 5 5 6 6 6 6 6 6 6 6 6 7 7 8 8 9 10 10 10 10 11 11 11 11 11 11 10 10 10 10 10 10 10 10 10 10 10 10 10 10 10 10 10 9 9 9 9
4 4 5 5 5 4 5 5 5 5 5 5 5 5 5 6 7 8 8 9 9 10 10 10 10 10 10 10 10 10 10 10 10 10 10 10 10 10 10 10 10 10 10 10 9 9 9 9 9
4 4 4 4 4 3 4 4 4 4 4 4 4 4 5 6 6 7 8 8 9 9 9 10 10 10 10 10 10 10 10 10 10 10 10 10 10 10 10 9 9 9 9 9 9 9 9 9 9
3 3 3 3 3 3 3 4 4 3 3 3 3 3 4 5 5 6 7 7 8 8 9 9 9 9 9 9 9 9 9 9 9 9 9 9 9 9 9 9 9 9 9 9 9 9 9 8 8
3 2 2 2 3 3 3 4 3 2 2 2 2 2 2 3 4 4 5 6 7 8 8 8 8 9 9 9 9 9 9 9 9 9 9 9 9 9 9 9 9 9 9 9 8 8 8 8 8
2 2 2 2 3 2 3 3 1 1 1 1 1 1 1 2 3 3 4 5 6 7 7 8 8 8 8 8 9 9 8 8 8 8 8 9 9 8 9 8 8 8 8 8 8 8 8 8 8
1 1 1 1 1 1 2 1 1 1 0 -0 -0 0 0 1 2 2 3 4 5 6 6 6 7 7 8 8 8 8 8 8 8 8 8 8 8 8 8 8 8 8 8 8 8 8 8 7 7
0 0 -0 0 1 2 2 1 -0 -0 -1 -1 -1 -1 -0 0 1 2 2 3 4 5 5 6 6 6 7 7 7 7 7 8 8 8 8 8 8 8 8 8 8 8 7 7 7 7 7 7 7
-1 -1 -1 -1 0 1 1 -0 -1 -1 -1 -1 -2 -1 -1 -1 -0 0 1 2 3 4 4 5 5 5 6 6 6 7 7 7 7 7 7 7 7 7 7 7 7 7 7 7 7 7 7 7 7
-1 -2 -2 -1 -1 -1 -1 -1 -1 -2 -2 -2 -2 -2 -2 -1 -1 -0 0 1 2 3 3 4 4 5 5 5 6 6 6 6 7 7 7 7 7 7 7 7 7 7 7 7 7 7 7 7 6
Wind_Speed
3 4 3 4 5 3 5 6 4 4 4 4 3 4 6 6 6 4 0 6 9 10 13 16 17 16 15 15 14 14 13 14 13 13 13 14 14 13 13 13 13 13 14 14 15 15 14 15 15
2 3 5 5 5 2 7 6 7 7 5 2 2 3 3 3 2 3 3 5 9 11 13 15 17 16 15 14 14 14 13 13 13 13 13 13 13 13 12 12 12 13 14 14 14 14 14 14 14
3 4 4 4 5 7 7 6 8 4 3 2 2 1 3 3 3 5 4 8 9 9 12 15 17 16 15 14 14 14 13 12 12 12 12 13 13 13 13 12 12 13 13 14 14 14 14 14 14
3 4 5 3 7 7 6 4 3 2 1 2 3 1 1 1 3 4 7 10 10 8 11 14 17 16 15 15 14 14 13 12 12 12 12 12 12 12 12 12 12 13 13 13 13 14 14 13 13
4 4 2 3 7 6 6 5 3 3 2 2 4 3 2 3 1 7 9 10 11 9 10 13 16 16 15 15 14 13 13 12 11 11 12 12 12 12 12 12 13 12 12 13 13 13 13 13 12
4 4 3 6 7 6 5 5 4 4 3 2 5 3 3 1 5 8 8 8 8 8 9 12 15 15 15 14 14 13 13 12 11 11 11 11 12 12 12 12 12 12 12 12 12 13 13 12 12
5 4 5 6 5 6 5 4 6 5 5 5 6 5 2 1 4 7 8 7 6 7 7 8 11 13 14 14 14 13 12 12 11 11 10 11 12 12 12 11 11 12 12 12 12 12 12 12 12
5 5 4 5 6 7 4 4 4 7 6 3 6 7 5 5 7 8 7 7 6 6 6 6 8 10 11 12 13 13 12 12 11 11 11 11 11 12 11 11 10 11 11 11 11 11 11 12 12
4 3 7 8 8 6 3 3 2 2 3 2 3 4 3 8 10 10 7 6 6 6 4 5 6 8 9 10 11 12 12 11 11 11 12 11 10 10 10 11 10 11 11 11 10 10 11 11 11
5 7 9 6 6 4 2 4 3 2 1 2 1 0 4 9 12 12 11 11 9 8 6 5 5 7 8 8 9 9 9 9 10 10 11 10 9 9 9 10 11 11 10 10 9 10 10 10 10
6 8 5 5 5 3 3 3 3 5 5 7 7 7 8 9 11 12 12 11 10 9 7 6 6 6 7 6 7 7 8 8 9 10 10 10 9 9 9 8 8 9 9 8 8 8 9 9 9
6 6 5 4 3 3 4 3 3 6 8 5 6 8 10 12 13 13 12 11 9 8 8 7 6 6 6 6 6 7 6 6 7 9 10 10 7 6 6 6 7 7 8 8 8 8 8 8 8
7 6 5 6 5 4 3 5 5 6 7 3 3 7 10 12 11 10 9 7 7 8 8 8 7 7 7 6 5 6 6 6 8 9 9 10 7 5 6 5 6 7 8 7 7 7 7 7 7
5 5 6 6 6 4 5 7 4 8 4 3 5 8 9 10 10 7 6 7 7 8 8 7 8 7 8 6 5 5 6 7 8 8 9 10 9 7 6 5 5 6 7 7 7 7 6 5 5
2 4 7 6 6 4 3 8 9 8 3 4 6 6 6 6 6 8 9 8 8 8 7 7 8 7 8 7 6 6 7 8 7 8 9 10 10 9 7 5 5 6 7 8 7 7 6 5 4
1 3 5 5 5 5 6 13 7 4 6 6 6 6 6 6 6 6 6 6 6 6 7 7 7 7 7 7 6 6 7 7 7 8 9 10 10 10 8 6 5 7 8 7 5 4 4 3 3
3 6 7 5 4 4 8 9 5 3 5 6 6 5 6 5 4 5 5 5 6 7 7 7 6 7 7 7 6 6 6 6 6 7 8 9 10 11 9 6 6 8 7 5 5 3 3 4 4
6 6 5 6 4 4 7 9 6 2 4 5 5 5 4 5 6 5 4 5 5 6 6 7 6 7 6 5 4 4 4 4 5 6 7 9 9 10 9 6 7 8 6 4 5 4 3 3 4
3 5 6 6 4 3 8 10 8 5 4 5 4 4 5 6 5 3 3 4 4 4 5 6 7 7 6 5 5 5 5 4 4 4 6 8 9 10 8 6 7 6 5 6 6 5 5 3 3
6 7 7 6 3 4 6 9 7 5 5 5 5 5 6 4 3 2 2 3 4 5 6 6 7 7 7 6 5 4 4 3 3 3 5 7 8 9 8 7 6 6 5 6 6 5 4 2 2
7 7 6 5 4 3 3 7 6 5 4 3 2 3 3 4 4 3 2 3 3 5 6 6 7 7 7 6 4 4 3 3 3 3 3 4 7 8 7 7 7 7 7 7 7 6 6 4 2
7 4 5 5 3 4 3 5 5 3 3 3 3 3 3 3 3 2 1 2 3 4 4 5 5 6 7 7 7 7 6 5 5 4 4 4 6 7 7 7 7 7 6 6 6 6 4 6 4
3 3 5 6 5 4 4 4 6 1 2 4 5 4 4 3 3 2 2 3 2 2 3 4 4 5 6 7 8 7 5 4 3 4 5 4 4 5 6 7 6 6 5 6 6 6 5 5 5
2 2 2 1 2 6 8 6 4 1 2 4 5 5 5 4 2 2 1 0 0 0 1 3 4 5 5 6 7 7 7 6 6 5 5 4 3 3 4 5 5 5 5 6 6 7 7 6 5
1 2 1 1 4 6 5 6 3 2 4 4 6 7 6 5 4 3 2 2 1 0 1 2 4 4 5 6 6 6 7 7 8 7 6 5 4 3 5 5 5 5 5 5 6 6 7 7 7
2 3 4 4 5 3 2 5 1 4 6 6 6 6 7 7 6 5 4 2 1 1 0 1 4 4 4 5 5 5 5 5 5 6 5 6 5 5 5 6 6 5 6 5 5 5 5 6 6
1 1 1 1 1 2 3 0 2 8 10 11 11 10 9 8 7 6 6 4 3 1 1 1 2 3 4 4 4 4 4 4 5 5 5 5 4 4 6 6 6 5 6 6 6 5 5 5 6
1 0 1 1 2 3 2 1 3 9 10 11 11 11 10 9 8 7 7 6 4 3 2 1 1 2 3 3 3 3 3 3 4 5 5 5 5 5 6 5 5 5 5 6 6 5 5 5 5
4 3 1 1 2 2 1 1 3 5 6 8 9 10 9 9 8 7 7 6 5 5 4 3 2 2 1 2 2 3 2 2 3 4 4 4 4 5 6 6 6 5 5 5 5 5 6 6 5
1 2 1 1 2 1 1 1 5 6 7 8 9 10 10 9 8 8 7 7 7 6 5 4 3 2 1 1 2 2 2 3 3 3 4 4 4 5 5 5 5 5 5 5 6 6 6 6 6
Wind_Direction
43 69 72 59 61 60 232 236 222 227 224 220 183 169 173 176 175 203 117 142 138 149 159 156 151 148 145 141 137 133 133 131 129 128 127 125 124 121 118 117 115 113 111 108 105 101 100 101 102
94 85 60 66 110 202 252 234 220 219 212 156 126 130 149 215 199 142 148 161 146 149 154 154 152 149 146 144 141 139 134 132 132 131 132 130 128 125 122 119 117 113 111 109 107 106 104 104 104
106 60 90 94 157 197 228 228 223 245 234 177 141 153 174 204 176 174 182 156 143 145 151 155 153 151 149 146 143 141 137 133 133 134 134 132 131 128 124 119 116 113 112 112 109 108 107 108 107
92 57 64 113 220 224 224 239 207 238 232 195 158 179 257 296 192 181 152 146 142 144 149 155 154 152 150 147 145 142 140 136 134 135 135 132 131 129 124 118 115 112 113 114 112 110 110 110 110
65 89 110 232 239 243 238 249 224 211 214 189 158 172 256 330 109 137 145 147 148 147 149 157 157 155 152 150 147 143 140 138 135 135 135 131 128 125 124 121 118 116 115 116 115 114 111 110 109
71 85 150 227 244 258 251 227 191 209 218 188 154 159 243 337 136 146 145 147 148 148 147 157 160 157 156 154 151 147 143 139 137 136 134 132 130 126 122 124 123 120 119 119 118 117 113 109 107
128 135 198 216 240 255 240 194 185 197 210 210 171 158 249 204 159 142 135 134 138 140 141 147 158 160 160 157 154 152 146 143 140 136 130 129 131 128 126 124 126 124 121 118 117 117 114 110 107
141 140 202 214 218 244 231 186 201 185 213 197 158 169 206 198 146 130 127 129 136 139 141 142 147 149 152 155 156 153 148 146 142 135 128 125 129 129 127 124 123 124 124 121 118 117 115 110 108
113 144 217 211 201 234 217 198 228 180 156 170 196 198 202 140 137 136 138 142 150 153 148 146 144 141 144 149 153 149 146 145 139 133 128 122 121 124 123 124 124 121 122 123 120 117 115 110 108
150 205 223 210 199 216 217 204 203 148 183 210 210 173 127 143 153 160 167 171 172 172 169 156 151 147 143 146 142 140 140 139 134 131 130 124 121 123 125 127 128 125 121 120 120 116 112 105 103
186 214 221 232 228 235 240 236 205 169 222 216 199 180 157 162 169 176 180 179 181 177 173 167 159 151 143 134 135 133 134 134 134 135 135 128 121 120 120 118 119 120 118 111 110 107 106 104 103
208 234 220 239 224 219 225 225 224 207 225 220 195 172 166 174 183 187 186 185 179 174 178 170 163 156 148 140 141 139 136 134 137 142 143 134 125 122 124 119 122 121 121 115 110 108 110 105 104
228 248 239 241 257 248 246 243 244 248 257 254 181 168 178 186 193 196 190 183 178 182 182 176 167 166 156 146 148 149 148 149 148 148 150 147 140 141 137 131 128 127 127 123 118 115 111 105 102
230 244 258 249 243 239 236 259 241 255 253 222 192 192 193 194 193 188 184 185 189 190 186 179 174 169 160 160 159 159 157 154 153 155 159 157 153 152 147 141 137 134 135 133 130 126 119 110 105
228 261 280 254 228 228 206 267 238 246 212 211 206 201 198 201 191 193 193 191 191 189 184 181 179 168 168 167 165 162 162 159 161 163 164 164 162 160 155 152 151 148 143 134 124 118 112 108 103
208 226 252 254 209 204 185 253 255 235 191 212 216 210 207 212 209 209 200 194 187 181 179 181 179 174 176 171 167 165 167 165 168 167 168 169 168 166 160 157 158 155 146 136 129 127 118 114 111
218 232 238 265 223 192 198 247 265 228 190 213 224 221 218 222 231 223 207 199 188 184 179 177 174 175 179 173 165 163 164 166 167 169 170 172 170 169 163 161 156 153 145 140 141 132 132 133 123
221 230 236 234 239 207 226 250 278 271 201 223 231 229 225 228 237 227 207 199 190 182 177 175 174 173 170 163 151 149 153 157 159 170 175 173 172 170 164 156 155 153 146 147 143 138 125 130 130
222 228 252 256 260 230 242 259 270 267 244 241 242 234 234 240 248 232 204 186 173 171 173 177 177 175 166 167 168 168 177 175 173 171 170 171 170 170 166 160 155 156 159 159 150 138 129 123 128
249 249 258 277 270 232 256 270 270 257 241 230 235 242 241 249 270 253 210 187 184 181 182 182 183 179 176 178 179 169 161 167 170 160 160 169 168 168 171 164 163 160 154 150 154 145 136 137 145
248 236 242 256 313 279 270 282 258 253 241 250 255 255 253 240 241 239 227 218 196 192 191 190 189 182 178 163 147 126 114 111 142 164 174 173 174 171 169 169 165 164 165 170 171 164 153 156 168
253 253 250 253 254 259 206 260 264 256 273 304 310 312 300 278 261 252 235 231 220 215 198 188 182 177 171 161 164 166 171 176 183 177 176 169 171 171 170 170 168 169 170 173 179 173 158 155 165
253 275 245 241 232 250 226 231 275 315 294 312 316 307 305 284 261 249 234 227 233 215 194 185 170 169 167 170 172 171 173 172 152 149 157 166 164 167 166 169 168 170 175 176 177 174 168 171 171
270 336 295 233 195 237 215 198 266 302 279 317 337 338 333 322 298 291 305 324 346 53 163 173 166 169 169 174 175 173 170 160 153 155 166 169 163 165 164 166 171 175 176 181 183 181 179 183 175
57 87 27 265 219 236 182 183 228 358 1 351 345 345 350 355 358 350 348 355 354 43 154 176 172 175 174 172 177 179 174 170 172 172 177 172 172 181 181 175 178 179 180 182 179 181 187 186 182
260 178 191 220 223 265 187 198 137 19 15 11 6 2 7 6 3 357 342 333 315 292 193 174 182 179 175 175 180 175 171 173 177 176 175 182 189 191 179 180 184 183 180 179 176 183 192 188 191
326 243 239 193 245 234 232 230 5 15 16 12 9 10 8 2 359 357 357 357 352 337 266 205 185 174 173 173 169 172 170 170 175 174 173 182 185 176 172 178 182 183 182 181 178 187 194 192 197
11 236 52 157 212 230 241 319 344 356 2 2 5 0 354 358 2 3 3 4 7 2 4 39 99 166 166 165 170 173 177 179 173 168 174 175 176 168 168 172 177 180 184 185 183 186 191 192 201
13 26 4 250 240 215 220 286 11 350 358 357 355 354 353 356 358 0 360 2 11 19 28 30 37 49 94 154 167 162 170 176 171 172 179 180 177 172 175 177 179 183 187 185 187 193 189 193 198
68 19 5 219 281 239 184 250 14 15 12 9 1 358 358 3 2 1 3 7 15 20 22 25 24 31 31 118 150 166 165 166 169 176 181 174 177 176 174 172 177 183 185 185 190 194 192 193 198
Height
1496 1498 1500 1503 1508 1518 1517 1509 1504 1501 1499 1496 1496 1497 1498 1500 1504 1506 1500 1499 1503 1506 1509 1513 1516 1518 1521 1523 1525 1527 1529 1530 1532 1533 1535 1536 1538 1539 1540 1541 1543 1544 1545 1546 1547 1548 1549 1550 1551
1496 1498 1502 1503 1513 1521 1515 1504 1501 1496 1494 1494 1495 1495 1496 1496 1497 1497 1497 1499 1503 1506 1509 1512 1516 1518 1520 1523 1525 1527 1529 1530 1532 1534 1535 1537 1538 1539 1541 1542 1543 1544 1545 1547 1548 1549 1550 1551 1552
1496 1498 1501 1505 1513 1514 1505 1497 1495 1492 1493 1493 1494 1494 1495 1495 1495 1496 1497 1500 1503 1506 1509 1512 1516 1518 1520 1523 1525 1527 1529 1530 1532 1534 1536 1537 1539 1540 1541 1543 1544 1545 1546 1547 1549 1550 1551 1552 1553
1496 1499 1501 1507 1507 1503 1497 1492 1491 1492 1492 1492 1493 1494 1494 1495 1495 1496 1497 1500 1503 1506 1509 1512 1515 1518 1520 1523 1525 1527 1528 1530 1532 1534 1536 1538 1539 1541 1542 1543 1545 1546 1547 1548 1549 1551 1552 1553 1554
1496 1497 1504 1508 1503 1497 1493 1490 1491 1491 1490 1491 1491 1492 1492 1494 1494 1495 1497 1500 1503 1506 1509 1512 1515 1517 1520 1522 1524 1526 1528 1530 1532 1534 1536 1538 1539 1541 1542 1544 1545 1546 1548 1549 1550 1552 1553 1554 1555
1495 1497 1507 1506 1499 1493 1490 1488 1489 1489 1489 1490 1490 1491 1491 1492 1493 1495 1498 1500 1503 1506 1509 1512 1514 1517 1519 1522 1524 1526 1528 1530 1532 1534 1536 1538 1539 1541 1543 1544 1546 1547 1548 1550 1551 1552 1554 1555 1556
1494 1499 1502 1500 1497 1492 1486 1485 1486 1487 1487 1488 1488 1490 1490 1491 1493 1495 1498 1501 1503 1506 1508 1511 1514 1516 1518 1521 1523 1525 1527 1530 1532 1534 1536 1538 1539 1541 1543 1544 1546 1547 1549 1550 1552 1553 1554 1555 1557
1491 1496 1497 1497 1494 1489 1483 1483 1482 1483 1484 1486 1487 1488 1488 1490 1492 1495 1498 1500 1503 1505 1508 1510 1512 1515 1517 1520 1522 1524 1527 1529 1531 1533 1535 1537 1539 1541 1543 1544 1546 1547 1549 1550 1552 1553 1555 1556 1557
1489 1496 1495 1491 1489 1484 1480 1481 1481 1482 1482 1483 1484 1485 1486 1488 1490 1493 1496 1499 1502 1504 1506 1509 1511 1513 1516 1518 1521 1523 1525 1528 1530 1532 1534 1536 1538 1540 1542 1544 1546 1547 1549 1550 1552 1554 1555 1556 1558
1487 1491 1485 1482 1481 1480 1479 1479 1480 1480 1481 1481 1482 1483 1485 1487 1489 1491 1493 1496 1498 1501 1504 1507 1509 1512 1514 1517 1519 1521 1524 1526 1528 1531 1533 1535 1537 1539 1541 1543 1545 1547 1548 1550 1552 1553 1555 1556 1558
1482 1482 1479 1478 1478 1478 1478 1478 1478 1479 1480 1478 1479 1480 1483 1485 1487 1489 1491 1493 1496 1499 1502 1505 1507 1510 1512 1515 1517 1520 1522 1525 1527 1529 1532 1534 1536 1538 1540 1542 1544 1546 1548 1549 1551 1553 1554 1556 1558
1479 1476 1476 1475 1476 1476 1476 1476 1476 1476 1475 1476 1477 1479 1480 1482 1484 1486 1488 1491 1494 1497 1499 1502 1505 1508 1510 1513 1516 1518 1521 1523 1525 1528 1530 1532 1534 1537 1539 1541 1543 1545 1547 1548 1550 1552 1554 1556 1557
1476 1474 1474 1474 1475 1475 1475 1474 1474 1472 1473 1474 1475 1477 1478 1480 1482 1484 1487 1489 1492 1494 1497 1500 1503 1506 1508 1511 1514 1516 1519 1521 1524 1526 1528 1531 1533 1535 1537 1540 1542 1543 1545 1547 1549 1551 1553 1555 1556
1472 1472 1472 1472 1472 1472 1473 1472 1472 1468 1470 1471 1472 1474 1475 1477 1479 1481 1484 1486 1489 1492 1495 1498 1500 1503 1506 1509 1511 1514 1516 1519 1522 1524 1526 1529 1531 1534 1536 1538 1540 1542 1544 1546 1548 1550 1552 1554 1556
1471 1472 1471 1469 1469 1470 1471 1470 1467 1465 1468 1468 1469 1471 1472 1474 1476 1478 1480 1483 1486 1489 1492 1495 1498 1501 1504 1507 1509 1512 1514 1517 1519 1522 1524 1527 1529 1532 1534 1536 1538 1541 1543 1545 1547 1549 1551 1553 1554
1471 1472 1472 1467 1467 1467 1473 1468 1463 1463 1464 1465 1466 1468 1469 1471 1473 1476 1478 1481 1483 1486 1489 1492 1495 1497 1500 1503 1506 1509 1512 1514 1517 1519 1522 1524 1527 1530 1532 1534 1537 1539 1541 1543 1545 1547 1549 1551 1553
1472 1473 1471 1468 1465 1465 1468 1464 1461 1461 1462 1463 1464 1465 1466 1468 1470 1473 1475 1477 1480 1483 1486 1489 1492 1494 1497 1500 1503 1506 1509 1511 1514 1517 1519 1522 1525 1527 1530 1532 1534 1537 1539 1541 1543 1545 1548 1550 1551
1472 1472 1469 1468 1464 1465 1466 1463 1461 1460 1460 1461 1461 1462 1464 1465 1467 1469 1472 1474 1477 1479 1482 1485 1488 1491 1494 1497 1499 1503 1505 1508 1511 1514 1517 1519 1522 1525 1527 1529 1532 1534 1537 1539 1541 1543 1546 1548 1549
1469 1470 1469 1467 1464 1465 1464 1462 1460 1459 1459 1459 1459 1460 1461 1462 1464 1466 1468 1471 1473 1476 1478 1481 1484 1487 1490 1493 1495 1498 1501 1504 1508 1511 1513 1516 1519 1522 1524 1527 1529 1532 1534 1536 1539 1541 1543 1545 1547
1467 1468 1468 1465 1464 1464 1463 1461 1459 1457 1457 1457 1457 1457 1458 1459 1461 1463 1465 1467 1469 1471 1474 1477 1480 1483 1486 1489 1492 1496 1499 1501 1505 1508 1511 1513 1516 1519 1521 1524 1526 1529 1531 1534 1536 1538 1540 1542 1545
1466 1468 1467 1467 1464 1463 1463 1460 1457 1455 1454 1454 1455 1455 1456 1457 1457 1459 1461 1463 1465 1468 1470 1473 1476 1479 1482 1486 1489 1492 1495 1498 1501 1504 1507 1510 1513 1516 1518 1521 1524 1526 1529 1531 1533 1535 1537 1539 1542
1466 1464 1465 1465 1468 1469 1464 1465 1455 1454 1454 1453 1454 1454 1454 1454 1455 1456 1457 1459 1462 1464 1467 1470 1472 1475 1478 1482 1485 1488 1490 1493 1496 1500 1503 1506 1509 1512 1515 1518 1520 1523 1525 1528 1530 1533 1535 1537 1539
1465 1463 1464 1464 1467 1470 1467 1468 1458 1455 1455 1454 1454 1453 1452 1452 1453 1453 1455 1457 1459 1461 1464 1466 1469 1472 1475 1478 1481 1484 1487 1490 1494 1497 1500 1503 1506 1509 1511 1515 1517 1520 1522 1525 1527 1530 1532 1534 1536
1464 1464 1464 1465 1468 1468 1462 1466 1460 1461 1458 1456 1454 1453 1451 1450 1451 1451 1452 1454 1456 1458 1460 1463 1465 1468 1471 1474 1477 1480 1483 1487 1490 1493 1496 1499 1502 1505 1508 1511 1514 1516 1519 1521 1524 1526 1528 1530 1532
1465 1469 1473 1472 1467 1461 1457 1460 1462 1460 1459 1458 1456 1453 1452 1450 1450 1450 1450 1451 1453 1454 1457 1459 1461 1464 1467 1470 1474 1477 1480 1483 1486 1489 1492 1495 1498 1501 1504 1507 1510 1512 1515 1518 1520 1523 1525 1527 1529
1467 1467 1472 1472 1465 1463 1459 1459 1464 1462 1460 1458 1456 1454 1452 1450 1449 1448 1448 1449 1450 1452 1454 1456 1458 1461 1464 1467 1470 1473 1477 1480 1483 1486 1489 1492 1495 1497 1500 1503 1506 1508 1511 1514 1516 1519 1521 1523 1525
1468 1469 1468 1471 1471 1469 1463 1463 1463 1461 1460 1459 1457 1454 1452 1450 1449 1448 1448 1448 1449 1450 1451 1453 1455 1458 1461 1464 1467 1470 1473 1476 1479 1482 1485 1488 1491 1493 1496 1499 1502 1504 1507 1509 1512 1514 1517 1519 1521
1471 1471 1473 1472 1468 1463 1462 1466 1471 1466 1464 1461 1459 1457 1454 1452 1450 1449 1448 1447 1447 1448 1450 1451 1453 1455 1458 1461 1464 1467 1469 1473 1476 1478 1481 1484 1487 1490 1492 1495 1497 1500 1503 1505 1508 1510 1513 1515 1517
1476 1476 1475 1475 1471 1467 1467 1475 1472 1471 1468 1466 1463 1460 1457 1454 1451 1450 1449 1448 1447 1447 1448 1450 1451 1453 1455 1458 1460 1463 1466 1469 1472 1474 1477 1480 1483 1485 1488 1491 1493 1496 1498 1501 1503 1506 1508 1510 1512
1478 1479 1478 1478 1476 1474 1473 1481 1474 1472 1470 1468 1465 1462 1458 1455 1453 1451 1450 1448 1447 1447 1448 1449 1450 1451 1453 1456 1458 1460 1463 1465 1468 1471 1473 1476 1479 1481 1484 1487 1489 1491 1494 1496 1499 1501 1503 1505 1507